Hourly Data Report for October 21, 2021

DRYDEN REGIONAL
ONTARIO
Current Station Operator: NAVCAN

49°49'39.000" N
92°44'39.000" W
412.70 m
6032125
71527
YHD

Download Data

Hourly Data (October 2021)
Hourly Data Report for October 21, 2021
TIME
LST
Temp Definition
°C
Dew Point Definition
°C
Rel Hum Definition
%
Precip. Amount Definition
mm

Wind Dir Definition
10's deg

Wind Spd Definition
km/h
Visibility Definition
km
Stn Press Definition
kPa
Hmdx Definition


Wind Chill Definition


Weather Definition


00:00 -1.3 -4.7 78 0.0 36 11 16.1 97.06   -5 LegendNANA
01:00 -2.0 -4.2 85 0.0 33 8 16.1 97.05   -5 LegendNANA
02:00 -2.0 -4.2 85 0.0 32 9 16.1 97.07   -5 LegendNANA
03:00 -2.5 -4.5 86 0.0 31 11 16.1 97.06   -7 LegendNANA
04:00 -4.0 -5.1 92 0.0 28 9 16.1 97.08   -8 LegendNANA
05:00 -4.1 -4.9 94 0.0 30 9 16.1 97.08   -8 LegendNANA
06:00 -3.2 -4.0 94 0.0 33 8 16.1 97.07   -6 LegendNANA
07:00 -3.1 -3.9 94 0.0 1 5 16.1 97.10   -5 LegendNANA
08:00 -2.4 -4.0 89 0.0 36 11 16.1 97.14   -6 LegendNANA
09:00 -1.8 -3.8 86 0.0 1 13 16.1 97.19   -6 LegendNANA
10:00 -0.6 -3.5 81 0.0 3 15 16.1 97.21   -5 LegendNANA
11:00 0.4 -3.4 76 0.0 32 8 16.1 97.22     LegendNANA
12:00 1.5 -3.4 70 0.0 LegendMM 8 16.1 97.18     LegendNANA
13:00 1.9 -3.2 69 0.0 28 15 16.1 97.16     LegendNANA
14:00 2.7 -3.0 66 0.0 27 13 16.1 97.15     LegendNANA
15:00 2.8 -3.0 66 0.0 31 11 16.1 97.16     LegendNANA
16:00 2.7 -2.8 67 0.0 35 11 16.1 97.16     LegendNANA
17:00 2.3 -2.4 71 0.0 33 5 16.1 97.15     LegendNANA
18:00 1.5 -2.2 76 0.0 30 5 16.1 97.16     LegendNANA
19:00 1.5 -2.5 75 0.0 31 8 16.1 97.17     LegendNANA
20:00 1.5 -2.3 76 0.0 35 8 16.1 97.16     LegendNANA
21:00 1.4 -2.0 78 0.0 34 9 16.1 97.15     LegendNANA
22:00 0.8 -2.0 82 0.0 29 9 16.1 97.13     LegendNANA
23:00 0.6 -2.0 83 0.0 29 8 16.1 97.09     LegendNANA

Notes on Data Quality.

Legend

  • E = Estimated
  • M = Missing
  • NA = Not Available*
  • [empty] = Indicates an unobserved value
Date modified: